sat.trackr.live / text

‹ back to catalog

STARLINK-30172

NORAD 57410 · 2023-102G

PAYLOAD ACTIVE UNKNOWN

§ Identity

Operator
Country
US
Launch date
2023-07-20
Launch site
AFWTR
Launch vehicle
Mass (kg)
RCS (m²)

Purposes: comms

External: N2YO · Heavens-Above · Gunter

§ Orbital elements

Epoch: 2026-09-20T22:00:03.000096Z

Period
93.18 min
Inclination
42.9991°
Eccentricity
0.0001463
Mean motion
15.45478135 rev/d
Perigee alt
429.0 km
Apogee alt
431.0 km
Semi-major
6,808.1 km
B*
1.7971e-3
RAAN
223.1857°
Arg perigee
258.6163°
Mean anomaly
335.1043°
Rev number
587

§ Raw data

STARLINK-301721 57410U 23102G   26263.91670139  .00088911  00000+0  17971-2 0  99932 57410  42.9991 223.1857 0001463 258.6163 335.1043 15.45478135  5878

JSON: /api/v1/satellites/57410 · /tle

For live sub-satellite position, see the globe view (requires WebGL).

§ Visibility from observer

Set your observer location to see the next 7 days of passes ≥ 10°. The values pass through the URL so the page stays shareable.

No JS? Fill the form by hand. The geolocation button needs JavaScript.